Wind_Speed
21 20 19 18 17 18 17 16 16 16 16 16 16 15 14 14 13 12 11 10 10 9 9 10 10 10 10 10 10 9 9 10 10 10 10 10 10 10 10 10 10 10 10 10 9 10 10 10 10 10 11 11 11 10 9 8 8 7 8 8 9 10 11 11 11 12 12 14 16 18 17 15 13 12 10 9 8 7 6 5 5 5 5 5 6
22 21 20 19 18 18 18 17 17 16 16 16 16 15 15 14 13 12 12 11 11 10 10 11 11 10 10 10 9 9 9 9 9 10 10 9 10 10 10 10 10 10 10 9 9 9 9 10 10 10 10 10 10 10 9 8 8 8 8 8 9 10 10 11 11 11 13 14 15 16 16 14 12 11 10 8 8 7 6 5 5 4 4 4 4
23 22 20 20 19 18 18 17 17 17 16 16 15 15 15 15 14 13 13 12 12 11 11 11 11 10 10 10 10 9 9 9 9 9 9 9 9 9 9 9 9 9 9 9 9 8 8 9 9 9 9 9 10 9 8 8 8 8 7 8 9 10 10 11 11 11 14 15 14 14 14 12 11 10 9 8 7 5 5 4 4 5 4 3 2
23 23 21 20 19 18 18 17 17 17 17 16 15 15 15 15 14 14 13 13 13 12 11 11 10 10 9 9 9 9 9 9 9 8 8 8 8 8 9 9 9 9 9 9 9 8 8 8 8 8 8 9 8 8 8 8 7 7 8 8 9 10 10 10 10 11 14 15 14 13 12 11 11 10 8 8 6 4 4 3 3 4 4 3 1
22 23 22 21 20 19 18 18 17 17 17 17 15 14 15 15 15 15 14 14 13 12 11 10 10 9 8 8 8 8 9 9 9 9 8 8 8 8 9 9 9 9 9 9 9 8 8 8 8 7 8 8 8 7 7 7 7 7 7 8 8 9 10 10 10 11 12 13 13 13 11 10 11 10 8 8 7 5 3 3 2 3 4 3 2
23 23 22 21 20 19 18 19 18 18 17 17 16 15 15 15 16 16 15 15 14 12 11 9 9 9 8 8 8 9 10 10 10 10 9 9 9 9 9 9 9 9 9 9 9 8 8 8 7 7 7 8 7 7 7 7 7 7 7 7 7 8 10 10 10 10 11 12 13 11 10 10 10 9 7 7 7 6 4 2 2 2 3 3 2
24 23 22 21 21 20 19 19 19 19 18 18 18 17 16 16 16 16 16 15 14 12 11 10 10 10 10 10 10 10 11 11 11 10 10 10 10 10 9 9 9 9 9 9 9 9 8 8 7 7 7 7 7 6 6 6 6 7 7 7 7 8 9 10 10 10 10 11 12 11 10 9 8 8 7 7 6 5 4 2 1 1 1 2 2
26 24 23 22 21 21 20 19 20 20 19 19 19 18 17 16 16 16 16 15 14 13 12 11 11 12 12 12 11 10 9 9 9 9 9 10 10 10 10 10 10 9 9 9 9 8 8 8 8 7 7 7 7 6 6 6 5 6 6 7 7 7 9 10 11 11 10 10 10 10 10 9 7 6 6 6 5 4 3 2 1 1 2 3 2
28 26 24 22 22 21 20 20 20 21 20 19 19 19 18 18 17 16 16 16 14 13 13 13 13 13 12 12 10 9 8 7 7 7 8 9 10 10 10 10 10 10 9 9 9 8 8 8 7 7 7 7 7 6 6 6 5 5 5 6 7 7 8 9 10 10 10 10 9 9 10 9 8 6 5 5 5 4 3 1 2 2 5 5 3
29 27 24 22 21 21 20 20 21 21 21 20 20 19 19 18 17 17 16 16 15 14 14 13 13 13 11 11 10 9 8 8 8 7 7 8 9 10 10 10 11 11 10 9 9 8 8 7 7 7 7 6 6 6 6 6 6 5 4 5 6 7 7 8 9 9 9 9 9 9 9 8 8 7 6 5 5 4 3 1 1 2 5 5 4
30 28 25 22 21 21 20 21 22 21 21 21 21 20 19 18 17 17 16 15 15 14 14 14 13 13 12 10 9 9 8 8 9 8 8 8 9 10 10 10 11 11 11 10 9 8 8 8 7 7 7 7 7 7 6 6 6 6 5 5 5 6 7 8 8 8 9 9 9 8 8 8 8 8 7 6 5 5 4 3 3 4 4 5 5
31 29 27 24 22 22 22 22 22 22 21 21 21 21 20 19 17 17 16 15 14 14 14 14 13 13 12 11 9 9 8 8 9 9 9 9 9 9 10 11 11 11 11 10 10 10 10 9 9 8 8 7 7 7 7 7 6 6 6 5 5 6 6 7 8 8 9 9 8 8 8 8 8 8 7 7 6 6 5 4 5 6 5 7 7
33 31 28 25 24 24 24 24 24 24 23 21 20 20 20 20 18 17 16 15 14 14 14 14 14 13 12 11 10 9 9 8 9 9 9 10 9 9 10 11 11 11 11 11 11 11 11 11 10 9 9 8 8 7 7 7 7 7 6 6 6 6 6 7 7 8 8 9 8 8 8 7 8 9 8 7 7 7 7 6 7 6 6 8 9
34 32 28 26 25 25 25 25 26 25 23 21 20 20 20 20 19 18 17 16 15 14 14 14 14 13 12 11 10 10 9 9 9 9 9 10 10 10 11 11 11 11 11 11 11 11 11 11 11 10 9 9 8 8 7 7 7 7 7 7 6 6 7 6 6 7 7 8 8 8 8 7 7 9 9 9 9 8 8 9 9 8 7 9 10
33 32 29 26 26 27 27 26 26 23 21 19 19 20 19 19 19 19 18 17 16 15 14 14 14 14 13 12 11 10 10 10 9 9 9 9 10 11 11 11 10 10 10 10 11 11 11 11 11 10 10 9 9 9 8 7 7 7 7 7 7 7 7 7 6 6 7 7 7 8 8 8 8 8 9 10 10 10 10 11 11 10 10 9 9
33 34 31 28 27 27 28 27 25 23 20 18 18 17 17 17 19 19 18 17 17 16 15 15 15 15 14 13 12 11 11 10 10 9 9 10 10 10 11 11 10 9 9 9 10 10 10 10 10 10 10 9 9 9 8 8 8 8 8 8 8 7 7 7 7 7 6 7 7 7 8 7 8 8 9 9 11 11 12 13 13 12 12 11 10
33 34 33 32 30 29 29 27 25 23 21 19 17 15 14 15 16 18 18 18 17 16 16 16 16 16 15 15 14 13 12 12 11 10 10 10 10 10 11 11 10 9 9 9 9 10 10 10 10 11 10 10 9 9 9 9 8 8 9 9 9 8 8 8 8 7 7 7 7 7 8 8 8 8 8 9 9 10 12 13 14 14 14 12 12
33 33 34 34 33 32 30 28 26 25 22 19 17 15 15 15 16 16 17 17 17 17 17 17 17 17 17 16 15 14 14 14 13 12 11 11 11 10 10 11 10 10 10 10 10 10 10 10 10 11 11 11 10 10 10 10 10 9 10 9 9 9 9 9 9 8 7 8 8 8 8 8 8 8 8 8 8 8 9 10 12 13 14 13 13
31 31 33 34 33 33 32 30 28 26 25 23 20 19 17 16 16 16 16 16 18 18 18 18 18 18 18 17 16 16 16 15 15 14 12 12 12 11 11 11 11 11 11 11 11 11 11 10 10 10 11 11 11 11 11 11 11 11 10 10 10 10 10 10 9 9 8 9 9 10 10 9 9 9 8 8 8 8 8 8 10 11 13 14 14
27 27 29 29 29 31 32 31 30 28 27 25 23 23 21 18 18 17 16 17 19 19 19 19 18 18 18 18 18 17 16 16 16 16 14 13 13 13 12 11 11 11 12 12 12 12 11 11 11 11 11 11 11 11 12 12 12 12 11 11 11 11 10 10 10 9 9 9 10 11 11 11 10 9 8 8 8 8 8 9 9 10 11 12 13
24 25 26 26 27 30 32 32 31 30 28 27 26 25 24 22 21 19 18 18 18 19 19 19 19 19 19 18 18 18 17 17 18 17 16 15 14 14 14 13 12 12 12 12 12 12 12 12 11 11 11 11 11 11 12 12 13 13 12 12 11 11 11 10 9 9 9 9 10 11 12 12 11 10 10 9 8 8 8 8 9 10 10 11 12
23 24 25 26 28 31 32 33 33 32 30 29 28 28 27 25 24 22 21 20 18 18 18 19 19 19 19 19 18 18 18 18 18 18 18 17 16 15 15 14 13 13 13 13 13 13 12 12 12 12 12 12 12 12 12 12 12 12 12 12 12 11 11 10 10 9 9 9 10 11 12 13 12 12 11 10 9 9 9 9 9 10 10 11 11
21 22 24 26 29 31 31 30 30 30 32 32 30 29 28 27 27 26 24 22 20 19 19 19 20 20 20 20 19 19 19 19 19 19 18 18 17 17 17 16 15 14 14 14 14 14 14 13 13 12 12 12 12 12 12 12 12 12 12 13 12 12 11 10 10 9 8 9 10 10 11 12 12 12 11 10 10 10 10 10 10 10 10 11 11
20 22 24 24 27 29 28 25 22 21 26 31 30 30 31 30 30 28 27 25 23 22 22 21 20 20 21 21 21 20 20 20 20 19 19 19 19 19 18 18 17 16 15 15 15 15 15 14 14 13 12 11 11 11 12 12 12 12 13 13 13 12 11 11 10 9 8 8 8 9 10 11 11 11 10 10 10 9 9 10 10 10 10 11 11
19 21 23 24 25 26 26 27 26 20 20 24 24 26 31 33 33 31 29 28 27 26 24 23 21 21 22 23 22 22 22 21 20 20 19 19 20 20 20 19 18 17 17 16 16 16 16 15 15 15 14 13 12 12 11 11 12 12 13 13 13 12 11 11 10 10 8 8 8 8 9 10 10 10 10 10 9 9 9 9 10 10 10 10 11
18 20 23 23 24 26 27 30 32 27 24 26 25 25 26 28 31 33 33 31 30 29 27 25 24 23 23 24 24 24 23 22 21 21 20 20 21 21 21 20 20 19 19 18 17 17 16 16 16 16 15 14 14 13 12 12 12 12 13 13 13 12 11 11 11 10 9 8 8 8 8 8 9 9 9 9 9 9 9 9 9 10 10 10 10
17 20 22 24 24 26 29 31 33 31 30 30 31 31 29 26 26 30 33 34 33 32 31 29 27 26 26 26 26 26 25 24 23 22 22 22 22 22 21 21 21 21 20 19 18 18 17 17 17 17 17 16 15 14 13 13 12 12 12 13 13 12 12 11 11 10 10 9 8 8 8 8 9 9 9 9 9 10 9 10 10 11 11 11 11
16 18 21 23 25 26 28 29 30 30 29 28 29 30 32 32 28 26 29 33 34 34 33 32 31 29 28 27 28 28 28 27 26 25 24 23 23 23 23 22 21 21 21 21 20 19 19 18 18 17 17 17 16 15 15 14 13 13 13 13 13 13 13 12 12 11 11 10 10 9 9 10 10 10 10 10 10 10 10 11 11 12 12 12 11
16 18 20 21 23 24 24 25 25 25 25 24 24 25 29 33 33 30 29 30 32 34 35 35 34 33 31 30 29 29 30 29 28 27 25 24 24 24 23 23 22 22 22 22 21 21 20 20 19 19 18 18 17 17 16 16 15 14 14 14 14 14 13 13 13 13 12 12 11 11 11 11 11 11 11 11 11 11 11 12 13 13 13 13 12
17 18 19 20 20 20 20 21 21 22 21 21 22 22 25 30 33 34 32 30 30 32 34 35 35 34 33 33 32 30 30 30 30 29 27 26 26 25 25 25 24 24 23 23 23 22 22 21 20 20 20 19 19 18 18 17 17 16 15 15 15 14 14 14 14 13 13 13 13 12 12 13 12 12 12 12 13 13 13 13 14 15 15 15 14
18 18 18 18 19 19 19 20 20 20 20 20 20 21 22 25 27 29 28 27 28 29 30 32 33 35 36 36 34 33 32 30 29 29 29 28 27 26 27 27 26 26 25 24 24 23 23 22 22 22 22 21 21 21 19 19 19 18 17 17 16 16 15 15 14 14 14 14 13 13 13 14 13 14 14 14 14 15 15 15 15 16 16 16 16
18 18 17 18 18 19 20 20 21 21 20 20 19 19 20 20 21 21 20 22 25 27 28 29 30 34 37 37 36 36 34 31 30 29 29 28 28 28 28 28 27 27 26 25 25 24 24 24 23 23 23 23 23 24 22 21 21 20 19 19 18 17 17 16 16 16 16 15 15 15 15 15 15 15 15 16 16 16 16 17 17 17 17 17 18
17 16 17 17 18 18 19 20 20 21 20 20 20 19 19 19 19 18 17 19 22 23 25 27 28 31 34 36 36 35 33 31 31 31 30 28 28 28 28 28 28 28 27 27 26 25 25 25 25 25 24 24 26 26 24 23 23 22 21 20 19 18 18 18 18 17 17 17 17 17 16 16 16 16 17 17 17 17 18 18 19 19 19 19 20
15 16 18 18 18 19 19 20 20 20 21 21 20 20 20 19 19 18 17 18 19 20 21 23 25 28 30 31 33 34 34 33 33 33 32 29 28 29 29 28 28 29 30 28 27 27 27 26 26 26 25 27 29 27 25 25 25 23 22 21 20 20 19 19 19 19 18 18 18 18 18 18 18 19 19 19 20 20 20 21 21 21 21 22 22
16 18 18 18 18 18 17 17 17 17 17 17 18 20 20 19 19 18 17 17 18 19 19 19 20 22 23 25 27 29 32 33 33 34 33 31 31 33 33 32 31 32 31 30 29 29 29 29 28 27 27 29 29 26 25 26 26 25 24 23 22 22 21 21 21 21 20 20 20 20 20 20 21 22 22 22 22 23 23 23 23 24 23 23 23
17 16 16 16 16 15 13 12 12 12 12 13 15 17 18 19 18 16 16 16 16 18 18 18 18 19 20 22 24 26 29 31 32 34 35 34 35 37 37 36 35 35 33 32 31 30 30 30 30 30 31 31 28 25 25 26 26 26 25 25 24 24 23 23 23 23 22 22 22 22 22 22 24 24 24 23 24 25 25 25 25 25 25 24 23
18 17 16 16 14 12 10 10 9 9 10 12 13 14 15 15 15 14 14 14 14 15 16 15 15 17 18 20 21 23 25 28 29 31 33 35 36 36 36 36 37 38 37 34 32 32 31 31 31 32 33 30 27 26 26 25 25 25 25 26 26 26 25 25 25 25 24 24 24 23 23 24 26 25 24 24 25 26 26 26 26 26 26 25 25
18 16 14 13 11 10 9 9 9 9 9 11 13 13 13 13 13 13 13 13 14 14 13 13 13 13 13 15 18 21 22 23 25 26 27 29 30 31 34 34 35 38 40 38 36 34 32 32 34 34 32 28 27 27 27 25 25 24 25 26 26 26 26 26 26 26 25 26 26 25 25 26 27 26 24 25 25 25 25 26 26 26 26 26 26
15 14 13 11 10 10 10 9 10 11 11 11 12 13 13 13 13 12 12 12 13 14 13 12 13 12 10 12 15 18 18 18 20 21 21 22 23 23 26 29 32 37 39 39 39 38 35 34 34 32 27 25 26 27 26 26 26 25 25 26 26 26 27 27 27 28 27 28 27 26 26 28 28 27 26 25 25 25 25 25 26 27 27 27 27
13 12 11 11 11 10 9 8 9 9 11 11 11 12 13 12 12 13 12 12 12 13 12 13 14 15 14 12 12 14 15 16 17 18 18 20 20 18 18 21 24 28 32 34 37 40 38 35 31 27 24 24 24 25 25 25 25 26 26 26 26 27 27 27 28 28 29 29 29 29 29 28 27 27 26 26 26 26 26 27 28 29 29 30 30
12 12 11 11 11 11 10 9 9 9 9 10 10 11 11 11 11 12 11 11 11 11 11 13 13 14 15 14 13 13 14 15 16 17 18 19 19 18 18 18 17 19 24 28 32 37 39 36 31 27 25 24 24 25 25 25 26 27 27 28 27 28 28 28 29 30 32 32 32 30 29 27 26 26 27 27 27 28 29 30 31 31 32 32 33
13 12 12 12 11 11 12 12 12 11 10 9 10 10 10 9 10 9 9 8 8 8 9 10 11 11 11 12 13 14 14 13 13 15 18 18 17 16 17 19 20 22 24 24 24 28 33 33 31 29 29 28 28 28 27 27 27 28 28 29 29 29 28 29 31 34 35 33 31 30 29 27 27 28 29 30 30 31 32 32 32 32 32 32 33
12 12 12 12 12 12 12 12 12 12 10 10 9 9 9 9 9 9 8 8 7 7 8 8 8 9 9 10 12 14 14 14 14 14 15 16 16 16 15 18 22 25 26 26 25 25 25 24 25 27 29 31 31 31 30 28 28 27 28 28 28 29 29 30 33 35 34 29 28 30 30 28 28 29 29 31 31 32 32 32 30 29 29 28 29
11 11 11 11 12 12 12 12 12 11 11 10 10 9 9 9 10 10 9 9 8 8 7 7 8 8 7 8 9 10 10 12 13 13 12 12 14 15 15 16 18 19 19 21 23 25 25 24 21 22 25 28 30 30 29 30 30 31 30 28 26 26 27 29 31 32 31 28 27 30 30 28 28 28 28 29 30 31 32 31 28 25 25 25 26
12 12 11 12 12 12 12 12 12 12 11 11 11 10 10 11 11 11 10 10 10 9 8 7 7 7 7 8 8 7 6 7 7 8 8 8 9 10 11 13 15 15 14 15 17 21 26 28 26 24 25 26 26 26 26 28 30 32 32 30 29 29 28 29 29 30 30 30 29 29 28 27 26 25 25 26 27 29 31 30 27 25 24 23 24
13 13 13 13 13 13 12 12 12 12 12 12 12 12 11 11 12 12 12 12 11 11 10 9 8 8 8 8 8 7 6 5 5 5 5 5 6 6 7 8 9 11 12 12 13 14 18 22 25 26 25 24 24 24 25 26 28 30 31 31 30 29 28 29 30 30 31 30 29 28 28 27 25 25 25 25 26 27 27 25 24 23 21 20 21
13 14 15 15 14 13 13 13 13 13 13 13 13 13 12 12 12 12 12 13 13 13 12 12 10 9 9 9 8 8 8 7 6 6 7 6 6 6 6 6 7 8 9 9 9 10 10 11 14 16 17 18 19 22 25 26 28 30 30 29 30 30 29 30 32 32 30 28 26 24 23 23 24 25 26 26 25 24 22 21 20 19 19 20 21
13 14 14 15 15 14 14 14 14 14 13 13 13 13 13 13 13 13 13 14 14 14 14 14 13 12 12 11 11 10 10 9 8 8 8 8 8 8 8 8 8 9 9 8 8 9 9 9 10 10 11 12 13 14 16 17 18 18 19 19 22 25 26 26 27 29 28 26 24 22 21 20 20 21 21 22 21 21 20 20 20 21 21 23 23
14 15 15 15 15 15 16 16 15 14 14 13 13 13 13 13 13 14 14 14 14 15 16 16 16 15 15 14 14 14 13 12 11 11 11 10 10 10 10 10 10 10 11 10 10 10 10 11 11 11 12 12 11 11 11 11 10 11 11 11 12 15 16 16 17 19 20 19 19 20 20 19 19 19 20 21 21 22 22 22 23 23 24 26 27
16 16 16 17 17 16 16 16 15 14 14 14 14 14 14 14 14 14 15 15 15 15 16 17 17 18 18 17 17 17 17 16 15 15 14 14 13 13 13 12 12 12 12 12 12 12 12 13 13 13 13 14 13 13 13 13 13 13 13 13 14 14 15 15 15 16 17 17 18 18 19 19 20 21 22 23 24 24 24 25 26 27 28 30 31
15 15 15 16 18 19 18 17 16 15 15 14 15 15 15 15 15 15 15 16 16 17 16 17 17 18 19 20 20 20 19 19 19 19 18 18 17 17 16 16 16 16 16 15 15 15 15 16 16 15 15 16 16 16 16 16 16 16 17 17 18 18 19 19 19 19 20 20 20 21 21 22 23 23 24 25 26 27 27 28 29 29 31 32 33
Wind_Direction
185 186 186 185 185 183 179 176 172 168 167 167 165 162 162 161 158 155 149 145 143 141 138 137 137 136 134 131 128 128 131 133 136 138 139 141 140 140 139 137 134 132 130 129 131 133 135 135 133 130 127 126 125 123 120 119 118 116 115 111 105 103 111 128 138 135 137 146 147 146 148 148 144 138 136 140 147 150 148 140 128 115 97 75 67
187 187 188 188 189 186 183 180 174 172 171 169 169 167 165 165 163 160 155 153 152 152 152 149 149 148 145 142 139 140 142 141 141 142 142 143 143 140 140 139 139 137 135 135 138 140 139 138 137 135 132 131 132 130 124 120 119 117 116 112 106 105 114 131 139 138 140 143 145 147 146 147 145 138 135 140 148 153 154 151 144 133 113 87 69
189 189 190 189 190 190 187 184 178 174 173 171 172 172 168 167 166 164 161 160 160 162 164 162 161 159 155 155 154 154 154 152 150 147 146 148 147 142 141 142 144 144 143 144 146 147 145 142 143 142 139 138 138 135 126 120 118 115 112 109 108 109 117 133 142 143 144 141 141 146 145 145 146 141 137 137 141 150 153 157 158 153 142 121 84
190 191 194 193 191 190 190 188 182 177 175 174 174 174 172 169 167 168 167 166 167 170 171 168 166 164 162 161 161 160 158 155 153 151 152 155 152 148 147 147 148 151 150 150 151 151 150 147 148 148 146 145 146 139 128 122 118 112 109 108 111 116 124 136 141 140 145 143 142 147 147 148 150 145 143 138 129 136 149 160 172 174 169 159 146
193 192 196 197 194 192 191 191 186 181 178 176 175 174 174 173 171 171 172 173 174 174 173 168 165 164 163 162 162 161 158 157 156 154 159 163 162 160 157 154 153 156 157 158 157 155 153 152 152 155 154 154 154 146 133 126 121 113 109 109 114 124 130 138 142 142 149 150 148 151 150 154 156 148 151 149 135 132 144 162 179 194 199 192 201
197 196 199 200 198 195 193 192 189 185 181 178 177 176 176 177 176 176 177 179 179 174 168 164 164 163 162 160 161 163 163 165 164 163 167 170 171 171 168 164 160 160 164 166 166 163 159 158 159 162 163 161 160 153 141 135 129 119 114 111 115 128 135 138 142 146 152 154 153 155 154 158 162 155 157 160 150 142 131 137 191 204 234 235 235
198 199 200 201 202 201 198 197 192 188 185 181 179 179 179 179 181 182 182 182 181 173 164 161 162 163 165 165 166 168 169 171 172 171 173 174 175 175 174 174 170 166 169 171 173 171 166 164 163 167 169 165 164 160 153 149 138 127 122 117 115 126 137 142 147 149 153 158 157 158 159 163 167 161 158 158 157 156 136 122 200 205 257 263 266
199 200 199 199 203 204 203 202 197 192 189 184 182 183 183 182 183 186 186 185 181 175 166 164 167 170 170 172 172 170 170 172 172 172 174 176 177 175 176 179 177 174 172 174 174 171 168 166 163 167 169 165 165 166 164 162 151 137 131 127 121 123 135 147 154 152 155 165 167 165 165 167 169 167 167 162 156 160 155 154 203 217 230 235 251
200 201 199 198 202 203 203 203 200 195 191 188 186 186 186 186 186 187 189 188 183 177 172 170 175 178 177 176 172 168 165 166 168 171 174 178 178 176 177 179 179 178 175 175 175 172 170 168 165 168 169 165 166 171 172 172 168 153 140 138 136 129 132 143 155 159 160 166 172 175 173 170 171 171 176 180 170 160 152 195 253 263 253 243 255
202 203 200 198 199 200 200 201 201 196 192 191 190 189 189 190 190 189 191 191 187 181 177 179 183 185 183 178 170 164 163 164 166 169 174 178 177 178 179 179 180 181 178 177 177 176 176 176 174 173 173 170 173 178 180 181 182 175 161 152 150 144 138 138 146 158 165 169 174 181 181 178 182 182 182 191 194 179 148 148 271 272 272 267 276
204 204 201 198 197 197 197 199 199 195 193 193 193 192 191 192 194 194 192 192 190 186 182 185 188 190 190 183 172 168 168 169 169 170 173 176 175 178 182 183 183 183 181 182 183 182 185 187 185 183 181 179 179 182 186 190 191 187 182 174 168 164 156 149 148 151 161 170 176 184 187 189 194 194 194 197 204 204 179 182 234 240 265 283 286
206 206 203 200 196 194 195 196 196 194 193 194 195 195 194 194 196 197 197 194 191 189 188 189 192 195 196 187 177 175 177 178 180 178 175 174 173 177 183 185 185 185 184 186 187 188 190 192 192 192 190 188 187 189 192 196 198 193 191 191 190 187 177 169 163 156 158 166 173 185 194 201 205 204 207 210 212 222 216 218 246 254 263 276 281
206 207 204 200 196 194 194 194 195 193 191 191 194 197 196 196 197 199 201 200 196 193 190 192 194 199 201 193 181 180 184 189 192 189 182 174 172 177 183 185 187 189 190 191 192 192 193 195 197 198 197 195 194 198 199 202 204 200 197 200 204 205 200 191 182 171 164 165 169 182 192 202 212 213 215 217 220 230 235 237 247 255 261 271 278
204 205 203 200 196 194 195 195 194 191 187 187 190 196 198 198 198 199 201 202 202 197 193 194 196 201 206 202 190 185 189 196 200 199 191 181 178 180 184 187 189 192 194 195 195 196 196 196 198 200 199 197 196 201 204 207 210 207 203 206 211 212 212 210 204 192 179 174 174 179 187 195 208 216 219 221 223 229 235 240 244 245 250 268 279
202 202 202 200 196 194 196 196 191 184 184 187 189 195 199 199 199 200 200 202 204 202 197 195 198 204 209 208 202 194 194 200 205 206 199 191 188 188 190 193 195 197 198 197 197 198 199 197 197 199 199 199 200 202 207 211 212 210 209 212 215 216 216 219 223 216 201 193 191 188 190 194 200 209 216 221 226 229 234 239 243 246 248 259 272
202 203 201 199 196 194 195 193 186 181 182 188 192 195 198 199 200 202 201 201 201 202 201 199 200 204 209 212 209 203 202 204 207 211 207 201 198 196 198 200 201 200 200 201 199 199 199 198 197 199 199 201 204 207 211 216 215 213 213 216 219 220 219 221 228 230 222 215 213 208 204 203 205 209 214 221 228 232 237 240 242 247 250 253 260
203 204 204 199 194 194 193 188 184 183 185 189 192 193 194 196 200 203 203 201 199 200 201 201 203 205 207 211 211 207 206 205 208 211 211 210 208 205 205 206 204 202 201 204 206 203 202 202 201 201 200 200 205 212 216 220 218 216 217 218 221 222 222 224 228 232 231 227 228 226 221 221 221 220 222 227 232 237 240 242 243 245 249 254 259
207 207 206 202 195 192 192 188 185 185 186 189 191 192 192 190 193 199 201 200 198 199 200 202 205 207 208 210 212 209 207 207 209 211 212 213 213 211 211 209 206 201 200 204 208 206 206 207 207 206 205 203 206 212 218 222 220 218 219 220 221 224 225 227 229 230 230 230 231 230 228 230 231 230 232 237 242 245 246 246 246 246 249 254 258
211 207 205 205 200 194 193 191 189 188 188 189 190 194 194 190 190 192 192 195 196 197 200 201 203 208 210 211 212 212 209 209 211 212 212 214 215 215 215 214 211 206 204 204 206 207 209 210 212 213 213 212 212 213 217 221 221 219 219 218 218 222 226 229 232 232 232 231 230 230 229 231 233 233 234 239 243 246 247 246 248 249 251 255 260
209 206 205 205 201 198 197 194 192 192 192 191 189 192 194 192 191 188 188 194 197 197 198 200 202 207 211 212 214 215 213 212 214 215 215 215 217 218 218 217 216 214 210 208 207 209 211 212 215 219 220 221 219 219 220 221 221 220 218 216 215 218 222 225 228 230 232 233 231 230 231 232 233 234 234 237 241 244 246 248 251 256 258 262 266
207 208 211 206 199 199 201 199 197 195 195 194 192 193 195 194 192 191 193 197 199 199 199 201 203 206 210 212 215 217 217 216 216 217 217 218 219 221 222 222 220 219 217 214 212 212 213 215 217 220 222 225 226 227 228 226 225 224 221 218 217 217 218 221 224 226 229 234 235 233 233 234 234 234 233 235 241 245 248 253 257 262 266 269 272
205 208 213 209 201 198 199 202 203 200 197 196 197 198 199 198 196 195 198 200 202 202 202 203 205 207 210 213 215 217 220 220 220 219 219 221 223 224 226 226 224 223 221 219 217 215 215 216 219 221 223 226 228 229 231 231 230 229 226 224 222 220 221 222 223 226 230 237 239 237 235 235 235 234 233 236 242 245 248 253 259 265 271 275 277
201 203 206 206 206 204 200 203 209 207 203 202 202 202 203 203 202 202 201 201 204 207 207 206 206 208 210 214 216 217 221 223 223 223 222 223 226 228 230 230 229 228 225 223 222 219 217 218 218 221 223 226 228 228 229 233 234 233 231 230 230 228 228 228 226 228 237 243 243 238 235 234 236 236 236 239 245 250 254 259 264 268 273 278 282
196 200 201 202 206 207 202 204 214 214 208 209 210 210 209 208 207 207 206 205 205 208 211 210 208 209 211 215 218 219 220 223 224 225 225 226 228 231 233 233 233 233 230 228 226 224 222 220 219 220 222 225 228 227 228 231 233 235 234 234 236 236 235 233 230 230 236 242 241 235 231 230 233 236 240 246 252 257 261 265 269 274 278 283 287
193 197 202 203 203 202 197 202 214 221 220 221 223 219 216 213 212 212 210 208 209 211 213 212 211 211 212 215 218 220 221 223 223 224 225 227 230 232 234 236 236 236 236 233 231 229 227 224 221 221 222 224 226 228 229 230 232 234 234 235 238 241 240 239 236 234 235 238 237 234 230 229 231 236 242 248 254 259 265 270 274 277 281 284 286
192 194 199 202 202 200 198 203 211 218 222 225 229 229 225 220 218 218 215 212 212 213 214 215 214 214 214 215 217 220 223 224 224 223 224 226 229 232 234 236 237 238 238 237 235 233 231 229 225 223 224 225 226 229 230 231 232 233 233 235 237 240 242 241 240 239 239 241 240 238 236 235 237 242 246 251 256 261 266 271 274 276 279 283 286
192 194 197 199 201 201 201 203 208 213 216 218 222 226 228 228 226 224 220 217 216 216 217 217 217 217 217 218 218 219 221 223 224 224 224 225 228 231 233 235 238 238 239 239 239 237 235 233 230 227 227 228 229 230 231 232 232 232 233 234 236 240 243 242 240 240 242 245 246 247 248 247 247 251 256 261 265 269 272 275 279 283 286 289 292
190 195 196 199 201 203 203 205 208 213 216 219 220 220 222 226 230 232 229 223 221 221 220 220 220 220 220 221 222 222 221 222 224 224 224 225 228 231 233 234 237 239 240 240 240 239 237 236 234 232 231 231 232 232 232 231 231 231 231 233 236 238 241 243 242 240 240 242 246 249 252 254 255 257 263 268 272 275 278 281 285 289 291 293 294
190 195 197 199 202 204 205 207 211 214 216 219 221 219 219 221 223 230 235 231 227 226 224 223 223 223 223 224 225 226 225 224 224 225 225 226 228 231 234 236 238 239 241 241 241 240 239 237 236 235 234 234 235 234 233 232 231 230 229 230 234 237 240 243 243 243 243 244 246 248 251 254 257 260 263 267 270 273 276 279 283 286 288 290 291
195 198 200 202 203 204 206 207 209 212 213 215 219 221 221 220 219 223 229 231 230 230 229 227 226 225 226 227 228 229 230 228 227 226 226 227 228 231 233 235 237 239 241 242 242 242 242 240 238 237 236 236 236 236 234 232 231 231 230 230 233 235 237 241 243 244 246 248 249 250 253 256 259 261 262 265 268 271 275 277 280 283 286 289 291
200 201 201 203 204 205 207 207 208 210 213 217 220 222 224 225 223 223 225 227 230 232 232 231 229 228 229 229 229 230 231 232 232 230 229 228 228 230 233 235 236 237 239 241 243 243 243 243 240 238 238 237 238 238 235 232 232 232 232 233 234 236 238 240 243 245 246 249 251 252 256 260 262 262 264 267 270 274 276 278 280 281 283 286 287
203 204 204 205 207 209 211 212 213 214 217 221 225 226 228 231 233 231 229 229 230 231 234 234 232 231 231 231 230 230 230 231 234 235 233 230 230 231 233 236 237 238 238 239 240 241 241 242 242 240 238 237 238 237 234 232 233 233 233 234 235 236 239 240 243 244 246 248 250 252 257 261 263 266 269 272 274 276 277 278 278 278 278 279 279
204 205 206 208 210 213 216 219 221 221 222 223 225 227 231 235 239 239 232 229 229 231 234 236 235 233 232 231 231 231 231 229 230 234 234 233 234 234 234 236 238 239 239 238 238 240 240 240 241 240 238 237 238 237 235 233 235 235 236 237 237 238 240 242 244 246 248 250 252 254 256 259 263 267 269 271 272 272 273 274 275 275 275 275 275
207 207 209 211 212 216 219 222 224 226 226 226 226 229 233 235 235 233 230 228 231 233 236 239 238 235 234 233 232 231 231 228 227 229 231 232 235 237 237 238 238 238 237 236 236 237 238 239 240 240 239 238 238 239 238 237 238 238 238 239 240 242 243 245 248 250 252 254 257 260 261 262 264 266 266 267 268 269 270 271 273 275 276 277 278
210 209 208 207 207 212 216 217 220 224 225 224 224 225 226 227 225 225 227 230 232 235 237 238 238 237 236 236 236 233 232 229 227 227 227 229 235 237 235 235 238 239 238 235 234 235 237 237 238 239 239 239 239 240 240 240 240 240 241 241 242 244 246 248 251 253 255 258 260 263 265 266 267 267 268 269 271 271 272 272 273 274 275 277 279
197 194 191 191 192 196 200 202 207 213 211 208 210 213 216 219 221 222 225 227 231 236 239 237 237 238 234 231 233 233 232 229 227 227 228 229 234 236 232 229 233 238 239 236 233 233 235 236 236 237 238 239 240 241 240 241 242 242 243 244 245 246 248 250 252 254 256 258 260 262 264 266 267 268 270 272 273 274 274 274 275 275 275 276 277
177 176 181 186 187 189 193 196 201 207 205 201 201 204 209 214 218 221 222 224 229 236 237 235 236 239 236 230 229 230 230 229 229 231 234 236 238 240 239 233 232 235 238 238 236 233 232 234 234 234 237 239 240 241 242 242 242 243 245 246 247 248 249 251 253 255 257 258 260 262 264 265 265 267 270 272 272 272 273 273 274 274 275 275 275
173 177 182 186 187 190 196 200 202 205 207 207 208 209 212 215 219 224 227 227 232 234 232 231 234 236 233 228 227 229 229 229 232 237 242 245 245 245 244 239 236 237 237 236 237 236 234 234 233 233 234 237 239 241 242 243 243 244 246 248 249 251 252 253 255 255 256 257 258 260 262 264 266 268 268 268 268 269 271 271 272 273 274 275 275
176 181 186 190 193 197 202 206 209 210 211 214 215 216 218 222 225 231 236 235 236 237 235 235 235 230 222 216 220 226 226 223 228 234 240 245 246 247 246 241 238 240 238 235 236 240 241 239 237 236 236 236 238 241 242 243 245 245 246 248 250 252 254 256 257 257 258 258 258 258 259 261 264 266 266 265 266 266 267 269 272 274 275 276 277
177 181 185 191 193 193 193 193 195 202 209 212 214 215 218 222 226 233 240 239 236 235 237 239 238 234 230 223 221 228 230 224 224 228 235 241 242 241 244 242 239 239 237 235 236 239 243 246 246 245 241 238 239 241 242 243 244 245 246 247 249 251 254 256 257 258 258 258 257 255 254 256 259 262 263 262 262 264 266 269 272 274 275 277 278
166 170 170 170 168 163 158 158 162 170 184 192 197 203 208 213 218 224 232 235 234 233 237 243 244 238 233 229 226 231 234 228 224 228 234 240 240 233 230 234 239 239 236 234 236 237 240 246 252 252 248 244 243 244 247 247 245 245 246 246 247 251 253 254 255 256 255 253 253 254 255 256 258 259 260 261 262 265 267 269 271 273 274 275 276
165 167 164 159 160 158 153 154 159 162 166 171 177 182 186 194 204 208 213 220 224 226 231 240 245 240 232 227 225 229 232 231 231 233 233 234 234 229 218 216 221 227 229 233 238 237 236 242 250 253 251 248 246 246 250 251 249 248 248 246 246 249 251 253 254 255 252 251 253 257 260 263 263 261 260 262 263 264 265 267 269 272 273 275 275
175 176 171 164 163 163 161 162 165 167 168 171 175 177 178 186 195 195 197 203 205 209 215 221 227 229 228 225 225 229 234 238 238 233 227 224 225 226 222 217 217 221 223 227 232 234 233 238 248 251 248 244 243 245 247 248 248 249 249 248 249 249 249 251 255 259 260 260 261 263 265 266 266 265 263 263 263 263 264 265 267 272 276 278 279
179 181 180 175 168 167 170 173 176 177 177 179 185 187 190 196 200 198 200 202 201 201 204 204 206 210 213 216 219 221 224 228 227 221 215 215 218 221 223 223 224 230 232 229 228 231 231 232 239 245 241 236 234 238 242 245 245 245 246 249 253 254 252 252 255 262 268 271 269 266 265 265 264 265 266 267 268 270 270 269 269 273 277 279 281
181 184 187 184 178 178 181 184 187 189 189 190 193 196 200 205 208 208 210 213 214 213 209 204 202 203 204 205 206 207 209 215 215 212 211 212 214 217 217 215 216 224 230 227 224 226 227 228 231 237 239 236 232 232 236 240 243 243 242 243 247 251 253 253 255 259 264 268 267 264 263 263 265 268 271 274 277 279 281 279 275 274 277 280 281
185 189 192 191 190 189 192 196 198 199 200 202 204 205 208 212 216 218 219 222 226 227 224 221 217 215 214 212 206 203 204 198 187 188 197 203 210 220 219 210 206 210 211 210 211 215 220 223 229 235 240 242 240 235 233 236 240 240 238 237 240 244 247 249 252 255 260 264 266 265 263 265 269 273 276 278 281 285 289 288 280 276 280 284 283
189 194 197 199 201 201 202 206 208 208 210 212 215 217 218 220 225 228 229 229 231 232 232 233 232 230 230 231 228 222 218 212 199 190 191 195 201 210 213 207 206 206 200 192 193 197 199 208 219 227 232 235 236 234 234 235 237 237 238 238 237 237 240 245 249 253 258 262 264 265 265 267 270 273 275 277 279 283 287 288 284 281 282 283 283
191 199 202 203 205 207 210 213 215 217 220 221 223 227 229 230 233 236 238 239 239 240 239 239 239 239 239 242 244 244 239 235 229 221 215 212 212 211 210 210 213 215 212 206 202 200 198 201 206 211 215 217 220 224 229 231 231 231 235 238 236 235 239 245 249 253 256 258 261 263 265 267 270 274 277 278 279 281 282 283 283 283 283 283 284
196 203 207 210 212 213 215 217 217 219 223 226 230 234 237 239 241 242 244 246 246 247 247 246 245 244 243 244 246 251 253 252 248 244 239 236 234 231 226 224 223 222 222 223 223 221 219 218 218 219 220 219 220 224 228 230 232 232 235 241 242 243 247 249 249 251 254 258 261 264 266 268 270 274 276 277 279 280 281 282 284 285 286 286 287
205 207 210 216 221 223 222 222 222 224 226 229 233 237 241 245 247 249 251 252 252 252 252 252 252 251 250 248 247 247 250 254 254 254 252 249 248 247 247 246 244 241 238 237 236 237 237 236 234 234 234 232 233 237 241 242 246 249 250 253 254 255 257 258 259 260 262 263 265 268 270 272 273 274 276 278 281 284 285 286 288 290 290 289 291
214 216 217 220 226 230 230 229 230 234 236 239 242 245 247 250 251 253 255 256 257 257 256 255 255 255 254 254 252 250 250 250 252 254 255 255 254 253 253 253 254 254 254 252 251 250 250 249 248 248 247 245 244 246 249 250 253 255 257 259 261 262 263 265 266 269 271 272 273 275 275 277 278 279 280 281 284 286 288 289 290 291 291 291 293
Height
3219 3220 3222 3223 3224 3225 3227 3228 3229 3230 3231 3232 3232 3233 3234 3235 3236 3237 3238 3239 3239 3240 3240 3241 3242 3242 3243 3244 3245 3245 3246 3247 3247 3248 3249 3249 3250 3251 3252 3252 3253 3254 3255 3256 3257 3257 3258 3259 3259 3260 3261 3261 3261 3262 3262 3263 3263 3263 3263 3263 3263 3263 3264 3264 3264 3265 3266 3267 3268 3269 3269 3270 3271 3272 3272 3272 3273 3273 3273 3273 3273 3273 3273 3273 3272
3218 3220 3221 3222 3224 3225 3227 3228 3229 3230 3231 3232 3233 3233 3234 3235 3236 3237 3238 3239 3240 3240 3241 3241 3242 3243 3244 3244 3245 3246 3246 3247 3247 3248 3249 3249 3250 3251 3252 3253 3253 3254 3255 3256 3257 3258 3259 3260 3260 3261 3261 3262 3262 3262 3263 3263 3263 3263 3263 3264 3264 3264 3265 3265 3265 3266 3267 3268 3269 3270 3271 3271 3272 3272 3273 3273 3274 3274 3274 3274 3274 3274 3274 3274 3273
3218 3219 3220 3222 3223 3225 3227 3228 3229 3230 3231 3232 3233 3234 3234 3235 3236 3237 3238 3239 3240 3240 3241 3242 3242 3243 3244 3244 3245 3246 3246 3247 3248 3248 3249 3250 3250 3251 3252 3253 3254 3254 3255 3256 3257 3259 3260 3260 3261 3262 3262 3262 3263 3263 3263 3264 3264 3264 3264 3264 3264 3265 3266 3266 3266 3267 3267 3268 3270 3271 3271 3272 3273 3273 3274 3274 3275 3275 3275 3275 3275 3275 3275 3274 3274
3217 3218 3220 3221 3223 3225 3226 3228 3229 3230 3231 3232 3233 3234 3235 3235 3236 3237 3238 3239 3240 3241 3241 3242 3243 3243 3244 3245 3245 3246 3246 3247 3248 3249 3249 3250 3251 3251 3252 3253 3254 3255 3255 3256 3257 3259 3260 3261 3261 3262 3263 3263 3263 3264 3264 3264 3264 3264 3264 3265 3265 3265 3266 3267 3267 3267 3268 3269 3270 3271 3272 3273 3273 3274 3274 3275 3275 3276 3276 3276 3276 3275 3275 3275 3275
3216 3218 3219 3221 3222 3224 3226 3227 3229 3229 3231 3232 3233 3234 3235 3235 3236 3237 3238 3239 3240 3241 3242 3242 3243 3244 3244 3245 3245 3246 3247 3247 3248 3249 3250 3250 3251 3252 3252 3253 3254 3255 3256 3257 3257 3258 3259 3260 3261 3262 3263 3263 3264 3264 3264 3264 3265 3265 3265 3265 3266 3266 3266 3267 3268 3268 3269 3269 3270 3271 3272 3273 3274 3274 3275 3275 3276 3276 3276 3276 3276 3276 3276 3276 3275
3215 3217 3219 3220 3222 3224 3225 3227 3228 3229 3231 3232 3233 3234 3235 3235 3236 3237 3238 3239 3240 3241 3242 3243 3243 3244 3244 3245 3245 3246 3247 3247 3248 3249 3250 3250 3251 3252 3252 3253 3254 3255 3256 3257 3258 3258 3259 3260 3261 3262 3263 3263 3264 3264 3265 3265 3265 3265 3265 3266 3266 3266 3267 3267 3268 3269 3270 3270 3271 3272 3272 3273 3274 3274 3275 3275 3276 3276 3277 3277 3276 3276 3276 3276 3276
3213 3215 3218 3220 3221 3223 3224 3226 3228 3229 3230 3231 3233 3234 3235 3235 3236 3237 3238 3239 3240 3241 3242 3243 3243 3244 3244 3245 3245 3246 3246 3247 3247 3248 3249 3250 3251 3251 3252 3253 3254 3255 3256 3257 3257 3258 3259 3260 3261 3262 3262 3263 3264 3264 3265 3265 3266 3266 3266 3266 3266 3267 3267 3268 3268 3269 3270 3271 3271 3272 3273 3273 3274 3274 3275 3276 3276 3276 3277 3277 3277 3276 3277 3276 3276
3212 3214 3216 3218 3220 3222 3224 3226 3227 3229 3230 3231 3232 3233 3235 3235 3236 3237 3238 3239 3240 3241 3242 3243 3243 3244 3244 3244 3245 3246 3246 3247 3247 3248 3249 3250 3251 3251 3252 3253 3254 3255 3256 3256 3257 3258 3259 3259 3260 3261 3262 3263 3264 3264 3265 3265 3266 3266 3266 3267 3267 3267 3268 3268 3268 3269 3270 3271 3272 3272 3273 3274 3274 3275 3276 3276 3277 3277 3277 3278 3277 3277 3277 3277 3277
3211 3213 3215 3217 3219 3221 3223 3225 3227 3228 3229 3230 3232 3233 3234 3235 3236 3237 3238 3239 3240 3241 3242 3242 3243 3244 3244 3245 3245 3246 3246 3247 3248 3248 3249 3250 3250 3251 3252 3253 3254 3254 3255 3256 3257 3258 3258 3259 3260 3261 3262 3263 3263 3264 3265 3265 3266 3266 3267 3267 3267 3267 3268 3268 3269 3269 3270 3271 3272 3272 3273 3274 3275 3275 3276 3276 3277 3278 3278 3278 3278 3277 3276 3276 3277
3210 3212 3214 3216 3218 3220 3222 3224 3226 3227 3228 3229 3231 3232 3233 3234 3235 3236 3238 3239 3240 3241 3241 3242 3243 3244 3244 3245 3246 3246 3247 3247 3248 3248 3249 3249 3250 3251 3252 3252 3253 3254 3255 3256 3257 3257 3258 3259 3260 3261 3261 3262 3263 3264 3264 3265 3266 3266 3267 3267 3268 3268 3268 3268 3269 3270 3270 3271 3272 3273 3273 3274 3274 3275 3276 3276 3277 3277 3278 3279 3278 3278 3277 3276 3276
3209 3211 3213 3215 3217 3219 3221 3223 3225 3226 3227 3228 3229 3231 3233 3234 3235 3236 3237 3238 3239 3240 3241 3242 3243 3243 3244 3245 3246 3246 3247 3247 3247 3248 3249 3249 3250 3251 3251 3252 3253 3254 3254 3255 3256 3257 3258 3259 3259 3260 3261 3262 3263 3263 3264 3265 3265 3266 3267 3267 3268 3268 3268 3268 3269 3269 3270 3271 3272 3273 3273 3274 3274 3275 3275 3276 3277 3277 3278 3279 3278 3278 3277 3277 3276
3207 3209 3212 3214 3216 3218 3219 3221 3223 3225 3226 3227 3229 3230 3232 3233 3234 3235 3237 3238 3239 3240 3241 3242 3243 3243 3244 3245 3246 3246 3247 3247 3247 3248 3248 3249 3250 3251 3251 3252 3253 3253 3254 3255 3256 3256 3257 3258 3259 3260 3260 3261 3262 3263 3263 3264 3265 3265 3266 3267 3268 3268 3268 3269 3269 3269 3270 3271 3272 3272 3273 3274 3274 3275 3275 3276 3276 3276 3277 3278 3278 3278 3278 3277 3276
3206 3208 3210 3213 3215 3216 3218 3220 3222 3223 3225 3226 3228 3229 3231 3232 3234 3235 3236 3237 3238 3240 3241 3242 3242 3243 3244 3245 3246 3246 3247 3247 3248 3248 3249 3249 3250 3251 3251 3252 3253 3253 3254 3254 3255 3256 3257 3257 3258 3259 3260 3261 3261 3262 3263 3263 3264 3265 3266 3267 3267 3268 3268 3269 3269 3269 3270 3270 3271 3272 3272 3273 3274 3274 3275 3275 3276 3276 3277 3277 3277 3277 3278 3277 3276
3204 3206 3209 3211 3213 3215 3217 3218 3220 3222 3224 3225 3227 3228 3230 3231 3233 3234 3236 3237 3238 3239 3240 3241 3242 3243 3243 3244 3245 3246 3247 3247 3248 3249 3249 3249 3250 3250 3251 3252 3253 3253 3254 3254 3255 3255 3256 3257 3258 3259 3259 3260 3261 3262 3262 3263 3264 3264 3265 3266 3267 3267 3268 3268 3269 3269 3269 3270 3270 3271 3272 3272 3273 3273 3274 3274 3275 3276 3276 3276 3276 3276 3277 3277 3276
3202 3205 3208 3210 3212 3214 3216 3217 3219 3221 3223 3224 3225 3227 3228 3230 3232 3233 3235 3236 3237 3238 3239 3240 3241 3242 3243 3244 3245 3246 3246 3247 3248 3249 3249 3249 3250 3250 3251 3252 3252 3253 3254 3254 3255 3255 3256 3256 3257 3258 3259 3260 3260 3261 3262 3262 3263 3264 3264 3265 3266 3267 3267 3268 3268 3269 3269 3270 3270 3270 3271 3271 3272 3272 3273 3273 3274 3274 3275 3275 3275 3275 3275 3276 3276
3200 3203 3206 3209 3211 3213 3215 3217 3219 3220 3222 3223 3224 3226 3227 3229 3230 3232 3234 3235 3236 3237 3238 3239 3240 3241 3242 3243 3244 3245 3246 3247 3248 3248 3249 3249 3250 3250 3251 3252 3252 3253 3253 3254 3255 3255 3255 3256 3257 3257 3258 3259 3260 3260 3261 3262 3262 3263 3263 3264 3265 3266 3266 3267 3268 3268 3269 3269 3270 3270 3270 3270 3271 3271 3272 3272 3273 3273 3273 3273 3274 3274 3274 3274 3275
3198 3201 3204 3206 3209 3211 3213 3216 3218 3219 3221 3222 3224 3225 3226 3228 3229 3231 3233 3234 3235 3236 3237 3238 3239 3240 3241 3242 3243 3244 3245 3246 3247 3248 3248 3249 3249 3250 3251 3251 3252 3252 3253 3254 3254 3255 3255 3256 3256 3257 3257 3258 3259 3260 3260 3261 3261 3262 3263 3263 3264 3265 3265 3266 3266 3267 3268 3268 3269 3269 3269 3270 3270 3271 3271 3271 3272 3272 3272 3272 3273 3273 3273 3273 3274
3196 3199 3202 3204 3206 3209 3212 3214 3216 3218 3220 3222 3224 3225 3226 3227 3228 3230 3231 3233 3234 3235 3236 3237 3238 3239 3240 3241 3242 3243 3244 3245 3246 3247 3248 3248 3249 3249 3250 3251 3251 3252 3252 3253 3254 3254 3255 3255 3256 3256 3257 3257 3258 3258 3259 3260 3261 3261 3262 3262 3263 3264 3264 3265 3265 3266 3266 3267 3268 3268 3269 3269 3270 3270 3270 3271 3271 3271 3271 3271 3272 3272 3272 3272 3272
3194 3197 3199 3202 3205 3208 3210 3212 3215 3216 3218 3220 3223 3224 3225 3226 3227 3228 3230 3231 3232 3233 3234 3235 3237 3238 3239 3240 3241 3242 3243 3244 3245 3246 3247 3248 3248 3249 3249 3250 3251 3251 3252 3252 3253 3254 3254 3255 3255 3256 3256 3257 3257 3257 3258 3259 3260 3260 3261 3262 3262 3263 3263 3264 3265 3265 3265 3266 3266 3267 3268 3268 3269 3269 3270 3270 3270 3270 3270 3271 3271 3271 3271 3271 3271
3192 3195 3197 3200 3203 3206 3208 3211 3213 3214 3216 3218 3221 3223 3224 3225 3226 3227 3228 3229 3231 3232 3233 3234 3235 3236 3238 3239 3240 3241 3242 3243 3243 3245 3246 3247 3247 3248 3248 3249 3250 3250 3251 3252 3252 3253 3254 3254 3255 3255 3256 3256 3257 3257 3258 3258 3259 3259 3260 3261 3261 3262 3262 3263 3263 3264 3264 3265 3265 3266 3266 3267 3268 3268 3269 3269 3269 3269 3270 3270 3270 3270 3270 3270 3270
3191 3194 3196 3198 3201 3204 3207 3209 3211 3212 3214 3216 3219 3221 3222 3223 3224 3226 3227 3228 3229 3230 3232 3233 3234 3235 3236 3237 3238 3239 3240 3241 3242 3243 3244 3245 3246 3247 3248 3248 3249 3250 3250 3251 3251 3252 3253 3254 3254 3255 3255 3256 3256 3257 3257 3258 3258 3259 3259 3260 3260 3261 3261 3262 3262 3263 3263 3264 3264 3264 3265 3266 3266 3267 3268 3268 3268 3269 3269 3269 3269 3269 3269 3269 3269
3189 3191 3193 3196 3198 3200 3204 3207 3208 3210 3212 3214 3217 3218 3220 3221 3223 3224 3225 3227 3228 3229 3230 3231 3232 3234 3235 3236 3237 3238 3239 3240 3241 3242 3243 3244 3245 3246 3247 3247 3248 3248 3249 3250 3250 3251 3252 3253 3253 3254 3255 3255 3256 3256 3257 3257 3258 3258 3259 3259 3260 3260 3260 3261 3261 3262 3262 3263 3263 3263 3264 3265 3265 3266 3266 3267 3267 3268 3268 3268 3268 3268 3268 3268 3268
3186 3189 3190 3193 3196 3198 3201 3203 3205 3208 3211 3213 3214 3216 3218 3220 3221 3222 3223 3225 3227 3228 3229 3229 3231 3232 3233 3234 3235 3236 3237 3238 3240 3241 3242 3243 3244 3245 3246 3246 3247 3248 3248 3249 3249 3250 3251 3251 3252 3253 3254 3254 3255 3255 3256 3256 3257 3258 3258 3258 3259 3259 3259 3260 3260 3261 3261 3262 3262 3262 3263 3264 3264 3265 3265 3266 3267 3267 3267 3267 3267 3267 3267 3267 3267
3184 3186 3188 3190 3193 3196 3198 3200 3203 3207 3210 3211 3213 3214 3216 3217 3219 3220 3222 3223 3224 3225 3226 3227 3229 3230 3232 3233 3233 3235 3236 3237 3238 3239 3240 3242 3242 3243 3244 3245 3246 3247 3247 3248 3248 3249 3250 3250 3251 3252 3253 3254 3254 3255 3255 3255 3256 3257 3257 3258 3258 3259 3259 3259 3260 3260 3260 3261 3261 3261 3262 3263 3263 3264 3265 3265 3266 3266 3266 3266 3266 3266 3266 3266 3266
3183 3185 3186 3188 3190 3193 3196 3198 3202 3207 3209 3210 3211 3212 3213 3215 3216 3218 3219 3221 3222 3223 3224 3225 3227 3228 3229 3230 3231 3233 3233 3235 3236 3237 3239 3240 3241 3241 3242 3243 3244 3245 3246 3246 3247 3247 3248 3249 3250 3251 3252 3252 3253 3254 3254 3254 3255 3255 3256 3257 3257 3258 3258 3259 3259 3260 3260 3260 3260 3261 3261 3262 3262 3263 3264 3264 3264 3265 3265 3265 3265 3265 3265 3265 3265
3182 3183 3185 3186 3188 3191 3193 3196 3200 3203 3206 3207 3209 3210 3211 3213 3214 3215 3216 3218 3219 3220 3221 3223 3224 3225 3226 3228 3229 3230 3231 3233 3234 3235 3236 3238 3238 3239 3240 3241 3242 3243 3244 3245 3246 3246 3247 3248 3249 3249 3250 3251 3252 3253 3253 3254 3254 3254 3255 3256 3256 3257 3257 3258 3258 3259 3259 3260 3260 3260 3261 3261 3262 3262 3262 3263 3263 3264 3264 3264 3264 3264 3264 3264 3264
3181 3183 3184 3185 3187 3189 3191 3193 3196 3199 3201 3203 3205 3206 3208 3210 3212 3212 3214 3215 3217 3218 3219 3220 3221 3222 3223 3225 3226 3227 3229 3230 3232 3233 3234 3235 3236 3237 3238 3239 3240 3241 3242 3243 3244 3245 3246 3247 3247 3248 3249 3250 3251 3252 3252 3253 3253 3253 3254 3255 3255 3256 3256 3257 3258 3258 3259 3259 3259 3260 3260 3261 3261 3261 3262 3262 3262 3263 3263 3263 3263 3263 3263 3264 3263
3180 3182 3183 3184 3186 3187 3189 3192 3194 3196 3198 3200 3201 3203 3205 3207 3209 3210 3211 3213 3214 3215 3216 3218 3219 3220 3221 3222 3223 3224 3226 3227 3229 3230 3231 3233 3234 3235 3236 3237 3238 3239 3240 3242 3243 3244 3244 3245 3246 3247 3248 3249 3250 3250 3251 3252 3252 3252 3253 3253 3254 3255 3255 3256 3257 3257 3258 3258 3258 3259 3259 3260 3260 3260 3261 3261 3261 3262 3262 3262 3262 3263 3263 3263 3262
3179 3181 3182 3183 3185 3186 3189 3191 3193 3194 3196 3197 3199 3200 3201 3203 3206 3207 3208 3210 3211 3212 3213 3215 3216 3217 3218 3220 3221 3222 3223 3224 3226 3228 3229 3231 3232 3233 3234 3235 3236 3237 3238 3240 3241 3242 3243 3244 3244 3245 3246 3247 3248 3249 3250 3250 3251 3251 3252 3252 3253 3254 3254 3255 3256 3256 3257 3257 3257 3258 3258 3258 3258 3259 3259 3260 3260 3260 3261 3261 3261 3261 3261 3261 3261
3178 3179 3181 3183 3184 3186 3188 3190 3191 3193 3194 3195 3196 3198 3199 3200 3202 3204 3205 3207 3208 3209 3210 3211 3213 3214 3215 3217 3218 3220 3221 3222 3224 3225 3226 3228 3229 3231 3232 3233 3234 3235 3236 3237 3239 3240 3241 3242 3243 3244 3245 3246 3247 3247 3248 3249 3250 3250 3251 3251 3252 3252 3253 3254 3255 3255 3256 3256 3257 3257 3257 3257 3257 3258 3258 3258 3258 3259 3259 3260 3260 3260 3260 3260 3260
3177 3178 3180 3182 3183 3185 3186 3188 3189 3190 3191 3192 3194 3195 3197 3199 3200 3201 3203 3205 3206 3206 3207 3208 3210 3211 3212 3213 3215 3217 3218 3220 3222 3223 3224 3225 3227 3228 3229 3231 3232 3233 3234 3235 3237 3238 3239 3240 3241 3242 3243 3244 3245 3245 3246 3247 3248 3248 3249 3250 3250 3251 3252 3253 3253 3254 3255 3255 3255 3256 3256 3256 3256 3257 3257 3257 3257 3257 3258 3258 3258 3258 3258 3258 3258
3176 3178 3179 3180 3182 3183 3184 3186 3187 3188 3189 3190 3191 3193 3194 3195 3196 3198 3201 3202 3202 3202 3203 3204 3206 3207 3208 3209 3211 3213 3214 3216 3219 3221 3222 3223 3224 3226 3227 3229 3230 3231 3232 3233 3234 3235 3236 3237 3239 3240 3241 3242 3242 3242 3244 3245 3245 3246 3247 3248 3249 3250 3250 3251 3252 3253 3253 3254 3254 3254 3255 3255 3255 3255 3255 3255 3256 3256 3256 3256 3256 3256 3256 3256 3256
3175 3177 3178 3179 3180 3181 3183 3184 3185 3186 3187 3188 3189 3190 3191 3192 3192 3194 3196 3197 3197 3198 3199 3200 3201 3202 3203 3205 3207 3209 3211 3213 3215 3217 3218 3220 3221 3223 3225 3226 3228 3229 3229 3230 3231 3233 3233 3235 3236 3237 3238 3239 3239 3239 3241 3243 3243 3244 3245 3246 3247 3248 3248 3249 3250 3251 3251 3252 3252 3253 3253 3253 3253 3253 3254 3254 3254 3254 3254 3254 3254 3254 3254 3254 3254
3175 3176 3176 3177 3178 3179 3180 3181 3182 3183 3185 3186 3187 3188 3189 3189 3190 3191 3192 3193 3193 3194 3195 3196 3197 3198 3199 3201 3203 3206 3208 3209 3210 3212 3214 3216 3218 3220 3222 3223 3225 3226 3226 3227 3229 3229 3230 3231 3233 3234 3235 3236 3235 3237 3239 3240 3241 3242 3243 3244 3245 3246 3246 3247 3247 3248 3249 3249 3250 3251 3251 3251 3251 3251 3251 3251 3252 3252 3252 3252 3251 3251 3252 3252 3251
3172 3173 3175 3176 3176 3177 3178 3179 3180 3181 3182 3183 3185 3185 3186 3187 3188 3189 3189 3190 3191 3191 3192 3193 3194 3195 3197 3199 3201 3203 3204 3205 3207 3208 3210 3212 3214 3216 3218 3220 3221 3222 3223 3224 3225 3226 3227 3228 3229 3231 3232 3231 3232 3235 3237 3238 3239 3240 3241 3242 3243 3243 3244 3244 3245 3246 3246 3247 3247 3248 3249 3249 3249 3249 3249 3249 3250 3250 3250 3250 3249 3249 3250 3250 3250
3171 3172 3173 3174 3175 3176 3176 3177 3178 3179 3181 3182 3183 3183 3184 3185 3186 3187 3188 3188 3189 3189 3190 3191 3192 3193 3194 3196 3197 3199 3200 3201 3203 3204 3206 3208 3210 3211 3213 3216 3218 3219 3220 3221 3221 3222 3223 3224 3226 3227 3227 3227 3230 3233 3234 3235 3236 3237 3238 3239 3240 3241 3241 3242 3242 3243 3243 3244 3245 3245 3246 3246 3246 3246 3247 3248 3247 3247 3247 3247 3247 3247 3247 3248 3248
3170 3171 3172 3173 3174 3175 3176 3177 3177 3178 3179 3181 3181 3182 3183 3184 3184 3185 3186 3187 3187 3188 3188 3190 3190 3190 3192 3194 3195 3197 3198 3199 3200 3201 3203 3204 3207 3208 3210 3212 3214 3216 3217 3218 3218 3218 3218 3220 3222 3222 3222 3224 3228 3229 3230 3232 3233 3234 3236 3236 3237 3238 3239 3239 3240 3240 3241 3241 3242 3242 3243 3243 3243 3243 3245 3245 3245 3245 3244 3244 3244 3244 3244 3245 3245
3170 3171 3172 3173 3174 3175 3175 3176 3177 3178 3179 3179 3180 3181 3182 3183 3183 3184 3185 3185 3186 3187 3187 3188 3188 3189 3191 3192 3193 3194 3195 3196 3197 3198 3200 3202 3203 3205 3206 3208 3210 3212 3213 3214 3214 3213 3213 3215 3216 3216 3219 3223 3225 3226 3228 3229 3230 3232 3233 3233 3234 3235 3236 3236 3237 3237 3238 3238 3238 3239 3240 3239 3239 3240 3241 3242 3241 3242 3241 3241 3241 3241 3241 3241 3241
3169 3170 3172 3173 3173 3174 3175 3175 3176 3177 3178 3178 3179 3180 3181 3182 3182 3183 3183 3184 3185 3185 3186 3186 3187 3188 3190 3191 3191 3191 3192 3193 3194 3195 3196 3198 3200 3201 3202 3204 3205 3207 3208 3210 3211 3211 3211 3212 3213 3215 3219 3222 3223 3224 3225 3226 3227 3229 3229 3230 3231 3231 3232 3233 3233 3233 3234 3234 3234 3235 3236 3235 3236 3237 3237 3238 3238 3238 3238 3238 3238 3238 3238 3238 3238
3169 3170 3171 3172 3172 3173 3174 3174 3175 3175 3176 3177 3178 3179 3180 3180 3181 3182 3182 3183 3183 3184 3184 3184 3185 3187 3188 3189 3189 3190 3191 3191 3192 3193 3193 3194 3196 3197 3198 3199 3200 3201 3202 3204 3207 3208 3209 3211 3213 3216 3218 3220 3221 3222 3223 3223 3224 3226 3226 3227 3227 3228 3228 3229 3229 3230 3230 3230 3229 3229 3230 3231 3232 3233 3233 3234 3234 3235 3235 3235 3235 3235 3234 3234 3234
3168 3169 3170 3171 3172 3173 3173 3174 3174 3175 3176 3176 3177 3178 3179 3179 3180 3180 3181 3181 3182 3182 3182 3183 3184 3185 3186 3187 3188 3188 3189 3189 3190 3191 3191 3192 3193 3195 3195 3196 3197 3198 3198 3200 3203 3205 3207 3209 3212 3214 3216 3217 3218 3219 3220 3221 3222 3222 3223 3224 3224 3224 3225 3225 3225 3225 3225 3224 3224 3224 3225 3228 3230 3230 3230 3230 3231 3231 3231 3232 3232 3231 3231 3231 3231
3168 3169 3170 3171 3172 3172 3173 3173 3174 3175 3175 3176 3176 3177 3178 3178 3179 3179 3180 3180 3181 3181 3181 3182 3182 3183 3184 3186 3187 3187 3188 3188 3188 3189 3189 3190 3191 3192 3193 3194 3194 3195 3195 3197 3200 3202 3205 3207 3210 3212 3213 3214 3215 3215 3216 3217 3218 3219 3220 3220 3221 3221 3221 3221 3221 3219 3218 3220 3222 3223 3224 3226 3227 3227 3227 3227 3227 3227 3227 3227 3227 3227 3227 3227 3226
3168 3169 3170 3170 3171 3172 3173 3173 3174 3174 3175 3175 3176 3177 3177 3178 3179 3179 3179 3180 3180 3181 3181 3181 3182 3182 3183 3184 3185 3186 3187 3187 3187 3188 3188 3188 3189 3190 3191 3192 3192 3191 3192 3194 3196 3199 3202 3204 3206 3207 3208 3209 3210 3211 3213 3214 3214 3215 3216 3216 3217 3218 3218 3218 3217 3215 3215 3218 3221 3221 3222 3224 3224 3223 3223 3223 3223 3223 3222 3222 3222 3222 3222 3222 3222
3168 3169 3170 3170 3171 3171 3172 3173 3173 3174 3174 3175 3176 3176 3177 3178 3178 3179 3179 3179 3180 3180 3181 3181 3182 3182 3183 3183 3184 3185 3185 3186 3186 3187 3187 3187 3188 3189 3190 3190 3190 3191 3191 3192 3193 3196 3198 3200 3202 3202 3202 3203 3205 3207 3208 3209 3210 3211 3212 3213 3214 3214 3214 3215 3214 3214 3214 3216 3218 3218 3219 3220 3220 3220 3220 3219 3219 3219 3219 3219 3219 3218 3218 3218 3218
3168 3169 3170 3170 3170 3171 3171 3172 3173 3173 3174 3174 3175 3176 3176 3177 3177 3178 3178 3179 3179 3180 3180 3181 3181 3182 3182 3183 3184 3184 3185 3185 3186 3186 3186 3186 3187 3188 3188 3189 3189 3190 3190 3191 3191 3193 3194 3196 3198 3198 3198 3199 3202 3204 3204 3205 3206 3207 3208 3209 3210 3211 3211 3211 3211 3212 3213 3213 3214 3214 3215 3215 3215 3216 3216 3216 3216 3215 3215 3216 3217 3216 3215 3215 3214
3168 3169 3169 3170 3170 3170 3171 3171 3172 3173 3173 3174 3175 3175 3175 3176 3176 3177 3177 3178 3178 3179 3179 3180 3180 3181 3182 3183 3183 3184 3184 3185 3185 3185 3186 3186 3186 3187 3187 3188 3188 3188 3189 3190 3190 3191 3192 3193 3195 3195 3195 3197 3200 3201 3201 3202 3203 3204 3204 3205 3206 3207 3208 3208 3208 3208 3209 3210 3210 3210 3211 3211 3211 3211 3212 3212 3212 3212 3212 3212 3213 3213 3212 3212 3211
3167 3168 3169 3169 3169 3170 3170 3171 3171 3172 3172 3173 3174 3174 3175 3175 3175 3175 3176 3176 3177 3177 3178 3178 3179 3180 3181 3181 3182 3183 3183 3184 3185 3185 3186 3186 3186 3187 3187 3187 3188 3188 3188 3189 3190 3191 3191 3192 3193 3193 3194 3195 3196 3198 3199 3200 3201 3201 3202 3203 3203 3204 3204 3205 3205 3206 3206 3207 3207 3207 3207 3208 3208 3208 3208 3208 3209 3209 3209 3209 3209 3209 3209 3209 3208
3166 3167 3168 3168 3168 3169 3169 3169 3170 3171 3171 3172 3172 3173 3174 3174 3174 3174 3174 3175 3175 3175 3176 3177 3178 3178 3179 3180 3180 3181 3182 3183 3183 3184 3185 3185 3186 3187 3187 3187 3188 3188 3188 3189 3190 3190 3191 3191 3192 3193 3193 3194 3195 3196 3196 3197 3199 3199 3200 3200 3201 3201 3202 3202 3203 3204 3204 3204 3205 3205 3205 3205 3205 3206 3206 3206 3206 3206 3206 3206 3206 3206 3205 3205 3205
3164 3166 3167 3167 3167 3168 3168 3168 3169 3169 3170 3170 3171 3171 3172 3172 3173 3173 3173 3173 3174 3174 3174 3175 3176 3176 3177 3178 3179 3179 3180 3180 3181 3182 3183 3184 3184 3185 3186 3186 3187 3187 3187 3188 3189 3189 3189 3190 3191 3191 3192 3192 3193 3194 3194 3195 3196 3196 3197 3198 3198 3199 3199 3200 3201 3201 3201 3202 3202 3203 3203 3203 3203 3203 3203 3203 3203 3203 3203 3203 3202 3202 3202 3201 3200
3163 3164 3164 3165 3166 3166 3166 3167 3167 3168 3168 3169 3169 3170 3170 3170 3171 3171 3171 3172 3172 3172 3173 3173 3174 3174 3175 3176 3176 3177 3177 3178 3179 3179 3180 3181 3182 3183 3183 3184 3185 3185 3186 3186 3187 3187 3187 3188 3189 3189 3190 3190 3191 3191 3192 3193 3193 3194 3195 3195 3196 3196 3197 3198 3198 3198 3199 3199 3199 3200 3200 3200 3200 3200 3200 3200 3200 3199 3199 3199 3198 3198 3197 3196 3195
3161 3162 3162 3163 3164 3164 3164 3165 3166 3166 3167 3167 3167 3168 3168 3169 3169 3169 3169 3170 3170 3170 3171 3171 3172 3172 3172 3173 3174 3174 3175 3176 3176 3177 3177 3178 3179 3180 3181 3181 3182 3182 3183 3184 3184 3185 3185 3186 3186 3187 3187 3188 3189 3189 3190 3190 3191 3192 3192 3193 3193 3194 3194 3194 3195 3195 3195 3195 3195 3195 3195 3196 3196 3196 3195 3195 3195 3195 3194 3194 3194 3193 3192 3191 3190